CAPE
290 259 82 236 411 448 388 367 340 374 420 368 475 281 220 244 27 24 28 0 0 3 3 57 303 760 890 1117 547 832 1067 1222 711
418 405 275 343 412 659 718 1203 926 575 697 994 785 435 356 189 21 104 137 89 0 12 126 491 636 667 996 1157 1006 1018 988 603 507
463 434 300 292 243 252 542 1330 1411 1196 1378 1338 1027 737 553 207 169 414 415 134 16 629 602 429 390 487 549 620 574 598 494 427 182
388 536 386 251 292 833 1371 1554 1466 1409 1591 1757 1421 907 620 827 623 449 276 122 551 820 658 485 400 233 165 218 244 260 296 68 96
353 425 486 401 330 1053 1461 1634 1672 1528 1232 1030 892 724 579 500 532 507 528 579 587 566 409 348 322 301 181 181 231 368 329 342 268
549 634 635 593 936 1156 1483 1587 1303 1071 818 500 385 265 169 191 225 163 128 184 331 321 305 324 276 119 66 58 80 67 50 78 1
670 721 952 1007 1063 1364 1593 1283 736 430 261 226 230 292 306 265 297 254 194 71 77 123 144 88 16 0 0 0 0 0 0 0 0
473 997 1065 1077 1055 1619 1376 850 359 194 238 345 378 327 237 100 20 11 1 0 0 0 35 36 3 0 0 0 0 0 0 0 0
495 943 1146 1442 1689 1651 1264 762 320 237 448 485 358 237 61 0 0 0 0 0 0 0 0 0 0 0 0 0 0 0 0 0 0
648 960 1282 1652 1790 1645 1379 800 570 529 616 456 317 164 29 0 0 0 0 0 0 0 0 0 0 0 0 0 0 0 0 0 0
603 1046 1419 1773 1783 1661 1437 817 758 711 599 421 258 109 5 0 0 0 0 0 0 0 0 0 0 0 0 0 0 0 0 0 0
638 1200 1532 1868 1661 1447 1056 665 874 706 642 521 278 48 2 0 0 0 0 0 0 0 0 0 0 0 0 0 0 0 0 0 0
830 1356 1720 1816 1517 1241 847 737 865 839 766 593 283 10 0 0 0 0 0 0 0 0 0 0 0 0 0 0 0 0 0 0 0
1460 1700 1757 1668 1496 1356 1064 893 1001 973 828 584 30 0 0 0 0 0 0 0 0 0 0 0 0 0 0 0 0 0 0 0 0
1570 1805 1767 1712 1573 1440 1121 961 1058 903 795 49 0 0 0 0 0 0 0 0 0 0 0 0 0 0 0 0 0 0 0 0 0
1582 1823 1794 1702 1538 1152 992 963 990 874 153 0 0 0 0 0 0 0 0 0 0 0 0 0 0 0 0 0 0 0 0 0 0
1504 1752 1729 1546 1149 1091 806 646 821 444 2 0 0 0 0 0 0 0 0 0 0 0 0 0 0 0 0 0 0 0 0 0 0
1339 1367 1142 1054 960 765 411 182 129 6 0 0 0 0 0 0 0 0 0 0 0 0 0 0 0 0 0 0 0 0 0 0 0
884 778 628 549 290 239 98 61 0 0 0 0 0 0 0 0 0 0 0 0 0 0 0 0 0 0 0 0 0 0 0 0 0
364 337 131 115 39 20 0 0 0 0 0 0 0 0 0 0 0 0 0 0 0 0 0 0 0 0 0 0 0 0 0 0 0
CIN
-319 -292 -337 -274 -241 -216 -226 -248 -232 -234 -277 -245 -328 -387 -371 -359 -309 -374 -358 0 0 -31 -26 -126 -69 -50 -37 -35 -26 -22 -14 -3 -5
-201 -282 -369 -352 -307 -277 -249 -194 -204 -210 -238 -252 -301 -355 -341 -367 -484 -315 -242 -291 0 -22 -90 -30 -47 -44 -25 -18 -24 -12 -4 -7 -4
-230 -314 -377 -372 -364 -332 -294 -209 -187 -171 -176 -211 -279 -320 -288 -340 -355 -223 -178 -255 -335 -48 -52 -69 -64 -45 -44 -30 -35 -19 -14 -8 -28
-242 -280 -347 -393 -380 -282 -224 -208 -238 -231 -189 -164 -190 -241 -243 -160 -172 -194 -218 -238 -51 -18 -30 -64 -88 -105 -103 -77 -63 -49 -35 -141 -72
-282 -349 -392 -417 -403 -266 -215 -200 -194 -200 -240 -258 -240 -228 -218 -209 -177 -150 -130 -92 -78 -85 -100 -89 -78 -76 -123 -94 -60 -36 -29 -16 -23
-293 -323 -391 -414 -335 -285 -218 -199 -216 -238 -276 -329 -328 -321 -304 -233 -199 -198 -212 -175 -114 -86 -64 -54 -91 -254 -333 -293 -214 -197 -174 -106 -1
-318 -344 -370 -349 -317 -240 -171 -219 -295 -364 -404 -402 -369 -287 -204 -173 -136 -133 -149 -183 -175 -143 -134 -191 -321 0 0 0 0 0 0 0 0
-350 -316 -330 -324 -309 -207 -237 -333 -414 -437 -404 -346 -268 -206 -197 -216 -78 -57 -40 0 0 0 -221 -202 -404 0 0 0 0 0 0 0 0
-338 -298 -281 -257 -205 -196 -244 -323 -419 -436 -315 -256 -239 -210 -246 0 0 0 0 0 0 0 0 0 0 0 0 0 0 0 0 0 0
-326 -308 -287 -245 -194 -199 -220 -315 -340 -319 -262 -234 -219 -226 -248 0 0 0 0 0 0 0 0 0 0 0 0 0 0 0 0 0 0
-324 -322 -292 -248 -208 -199 -187 -277 -257 -230 -231 -216 -204 -203 -74 0 0 0 0 0 0 0 0 0 0 0 0 0 0 0 0 0 0
-314 -285 -257 -214 -213 -225 -273 -318 -240 -255 -215 -179 -194 -216 0 0 0 0 0 0 0 0 0 0 0 0 0 0 0 0 0 0 0
-358 -307 -250 -214 -244 -257 -299 -314 -264 -220 -192 -185 -196 -205 0 0 0 0 0 0 0 0 0 0 0 0 0 0 0 0 0 0 0
-326 -301 -261 -260 -223 -209 -269 -295 -219 -165 -165 -162 -223 0 0 0 0 0 0 0 0 0 0 0 0 0 0 0 0 0 0 0 0
-301 -271 -268 -221 -204 -218 -260 -256 -207 -183 -169 -239 0 0 0 0 0 0 0 0 0 0 0 0 0 0 0 0 0 0 0 0 0
-284 -245 -223 -221 -222 -253 -260 -209 -166 -149 -357 0 0 0 0 0 0 0 0 0 0 0 0 0 0 0 0 0 0 0 0 0 0
-308 -266 -237 -253 -285 -242 -255 -277 -180 -220 -284 0 0 0 0 0 0 0 0 0 0 0 0 0 0 0 0 0 0 0 0 0 0
-339 -330 -366 -349 -283 -281 -323 -295 -283 -248 0 0 0 0 0 0 0 0 0 0 0 0 0 0 0 0 0 0 0 0 0 0 0
-440 -418 -388 -365 -430 -380 -366 -323 0 0 0 0 0 0 0 0 0 0 0 0 0 0 0 0 0 0 0 0 0 0 0 0 0
-539 -491 -482 -416 -337 -413 -18 0 0 0 0 0 0 0 0 0 0 0 0 0 0 0 0 0 0 0 0 0 0 0 0 0 0
Wind_Speed
18 15 8 5 7 6 5 6 5 5 4 4 6 7 7 6 6 7 5 8 15 19 18 17 19 19 14 5 5 15 10 6 11
16 13 12 9 10 11 8 8 9 6 5 7 9 8 8 9 9 9 8 13 14 13 10 6 21 22 19 19 19 18 16 16 15
12 12 12 11 12 11 10 12 13 11 9 10 9 10 10 9 9 9 12 14 13 10 11 14 17 19 19 19 19 18 18 17 17
12 13 14 13 12 11 11 12 13 15 14 13 13 12 11 11 12 12 14 14 15 16 16 16 17 18 19 19 19 19 19 19 20
13 12 11 12 13 12 11 12 13 14 14 15 15 16 16 17 18 18 18 18 18 17 17 17 17 18 19 19 20 20 20 20 21
11 11 11 10 9 9 11 13 14 14 15 16 17 17 18 18 19 19 19 18 18 18 17 17 18 19 20 20 20 20 20 20 20
9 9 10 11 11 9 11 13 13 14 15 16 17 17 17 18 18 19 19 18 18 17 17 17 18 19 19 19 20 20 20 20 20
5 7 8 10 13 13 14 13 12 12 14 15 16 16 17 17 18 18 18 18 18 18 18 18 18 18 18 18 19 20 20 20 20
4 5 7 10 11 12 12 13 12 13 14 15 15 14 15 16 16 16 17 18 19 19 18 19 18 18 18 19 20 20 20 20 20
10 8 7 8 10 11 11 13 11 12 13 13 13 13 14 14 14 16 18 19 19 20 20 19 19 19 19 18 19 19 19 18 19
11 9 9 9 7 8 9 9 10 11 11 11 11 13 13 13 14 16 19 20 20 21 20 20 20 19 19 18 17 17 17 18 19
10 10 10 9 10 8 7 8 10 10 10 10 11 12 12 13 14 17 19 19 22 22 21 20 19 18 19 19 18 18 16 17 18
4 6 6 9 12 14 11 8 8 8 8 9 10 11 13 14 16 18 19 21 22 21 20 19 18 18 17 19 19 21 18 17 19
2 7 6 7 8 7 7 8 6 5 7 9 11 12 14 16 17 18 20 22 21 19 19 18 18 19 19 20 21 21 20 20 22
3 6 4 5 4 5 6 7 5 4 7 9 11 13 14 16 16 17 20 21 20 20 20 21 20 20 20 21 22 22 21 22 24
4 4 3 2 2 3 3 5 4 4 6 8 10 12 15 16 17 19 20 19 20 20 21 22 22 22 23 24 23 22 22 23 24
4 3 3 1 4 3 0 2 3 5 7 9 10 12 14 16 16 18 19 18 19 21 22 22 23 24 25 25 24 25 24 25 25
6 5 4 4 3 1 2 6 5 6 7 9 11 13 15 17 16 18 18 20 22 22 22 22 24 24 25 26 26 26 26 26 27
7 7 7 5 2 2 5 7 8 8 9 10 12 15 17 15 16 17 18 20 20 21 21 21 21 22 23 24 24 25 26 25 24
10 8 7 6 2 3 2 5 3 7 9 11 12 15 14 14 16 18 18 18 19 20 19 19 20 20 20 22 24 26 25 21 19
Wind_Direction
309 3 50 29 17 36 22 26 22 17 36 60 74 77 80 90 66 118 145 91 154 178 196 223 237 241 215 196 18 360 14 38 9
337 7 22 19 4 2 6 32 22 28 63 74 89 93 95 134 135 80 117 84 99 91 107 149 341 337 348 346 348 353 360 360 360
31 14 17 27 22 28 46 48 38 53 70 91 96 103 117 106 100 99 79 67 71 87 60 30 13 2 359 2 0 2 1 0 357
33 57 72 60 45 45 54 45 42 59 70 68 68 79 86 82 85 82 73 65 63 58 51 42 31 23 19 15 15 11 6 0 352
349 32 41 65 76 63 49 49 57 66 62 57 54 57 55 54 58 64 65 67 60 52 47 45 42 34 27 21 14 8 5 3 358
351 357 20 38 51 58 70 70 74 68 67 65 63 62 61 61 62 63 61 63 60 56 50 44 33 26 20 17 13 10 6 4 1
5 23 44 65 67 62 78 78 74 70 67 66 68 68 67 64 65 62 54 51 51 50 45 34 25 20 16 13 10 6 4 1 358
353 64 68 89 97 97 97 90 77 68 66 68 72 70 67 59 55 52 50 42 33 28 25 22 18 15 12 8 4 1 359 355 352
124 96 87 101 102 101 100 101 90 81 75 72 66 60 54 51 45 40 32 25 22 21 19 15 13 9 6 5 4 3 2 0 359
143 131 114 109 111 107 108 108 91 81 73 67 57 47 39 36 36 29 24 21 19 16 12 10 8 6 5 6 6 8 8 6 3
155 143 131 121 111 109 107 97 86 74 67 58 44 38 40 37 30 23 19 17 16 11 7 4 4 4 8 9 10 12 9 4 359
153 145 134 124 120 114 109 100 88 74 60 50 43 37 33 32 28 19 14 12 6 4 3 4 9 12 10 8 7 5 4 360 356
129 127 119 116 115 116 114 104 87 70 64 51 36 33 26 20 18 12 8 4 2 4 9 12 12 11 10 6 5 1 2 360 353
134 128 120 110 107 104 109 107 84 56 45 29 26 22 18 16 12 9 7 5 6 10 11 11 11 9 7 4 0 357 355 351 345
176 141 122 117 102 99 106 107 92 38 23 31 24 22 19 14 13 13 8 5 8 8 7 5 2 359 358 357 355 354 352 349 346
179 180 165 140 118 105 97 99 71 50 38 35 27 21 15 14 12 8 5 4 4 3 1 359 358 356 352 350 351 352 351 348 346
265 262 245 207 150 144 71 80 65 51 41 34 27 19 15 11 10 7 3 7 8 4 1 0 357 354 353 354 353 350 348 346 344
277 277 264 193 185 186 29 321 329 32 39 37 21 18 12 8 11 11 11 9 4 5 7 4 359 358 357 354 353 353 350 347 344
290 283 280 253 227 131 95 39 329 14 29 26 20 9 5 12 14 15 12 9 10 12 11 10 6 3 0 360 356 353 350 346 344
293 287 283 266 250 105 44 53 41 26 19 18 15 9 14 18 19 12 10 11 6 4 9 8 4 2 0 356 352 350 348 348 348